AAL1536 KRDU-KEWR

Flight info

Callsign AAL1536
Flight time 1h 1m
Altitude 39000
Route OXFRD5 CARML DCT QUART PHLBO4
Aircraft B77W/H-SDE2E3FGHIJ5LORVWXY/LB1D1

Departure

Time 2026-04-30 06:48
Airport Raleigh-Durham International Airport (KRDU)

Arrival

Time 2026-04-30 07:49
Airport Newark Liberty International Airport (KEWR)
Time Latitude Longitude Altitude Speed Heading
2026-04-30 06:18 35.87565 -78.79681 388 ft 0 kts 135°
2026-04-30 06:37 35.87571 -78.79688 387 ft 2 kts 143°
2026-04-30 06:38 35.87584 -78.79696 387 ft 2 kts 168°
2026-04-30 06:38 35.87600 -78.79697 386 ft 2 kts 187°
2026-04-30 06:38 35.87614 -78.79693 386 ft 2 kts 207°
2026-04-30 06:38 35.87626 -78.79683 386 ft 2 kts 226°
2026-04-30 06:39 35.87637 -78.79669 387 ft 2 kts 228°
2026-04-30 06:39 35.87647 -78.79655 387 ft 2 kts 225°
2026-04-30 06:39 35.87657 -78.79642 387 ft 2 kts 225°
2026-04-30 06:39 35.87668 -78.79630 388 ft 2 kts 225°
2026-04-30 06:40 35.87678 -78.79617 388 ft 2 kts 225°
2026-04-30 06:40 35.87689 -78.79603 388 ft 2 kts 225°
2026-04-30 06:40 35.87700 -78.79590 389 ft 2 kts 225°
2026-04-30 06:40 35.87702 -78.79587 389 ft 0 kts 225°
2026-04-30 06:43 35.87702 -78.79588 389 ft 0 kts 225°
2026-04-30 06:43 35.87678 -78.79617 388 ft 7 kts 225°
2026-04-30 06:44 35.87629 -78.79678 387 ft 11 kts 225°
2026-04-30 06:44 35.87618 -78.79691 386 ft 0 kts 224°
2026-04-30 06:45 35.87611 -78.79700 386 ft 7 kts 224°
2026-04-30 06:45 35.87566 -78.79755 385 ft 9 kts 224°
2026-04-30 06:46 35.87552 -78.79823 382 ft 10 kts 273°
2026-04-30 06:46 35.87516 -78.79913 380 ft 13 kts 226°
2026-04-30 06:46 35.87448 -78.79998 377 ft 12 kts 225°
2026-04-30 06:46 35.87402 -78.80060 374 ft 9 kts 233°
2026-04-30 06:47 35.87419 -78.80140 371 ft 10 kts 305°
2026-04-30 06:47 35.87461 -78.80172 370 ft 5 kts 13°
2026-04-30 06:47 35.87497 -78.80132 371 ft 16 kts 44°
2026-04-30 06:47 35.87873 -78.79669 382 ft 137 kts 45°
2026-04-30 06:48 35.88766 -78.78644 1019 ft 195 kts 30°
2026-04-30 06:48 35.89904 -78.78279 2785 ft 170 kts 356°
2026-04-30 06:48 35.91085 -78.78549 3716 ft 180 kts 346°
2026-04-30 06:48 35.92376 -78.78501 4513 ft 203 kts
2026-04-30 06:49 35.93792 -78.77975 5363 ft 224 kts 12°
2026-04-30 06:49 35.95325 -78.77380 6235 ft 243 kts 12°
2026-04-30 06:49 35.96996 -78.76730 7168 ft 262 kts 12°
2026-04-30 06:49 35.98799 -78.76027 8105 ft 280 kts 12°
2026-04-30 06:50 36.00687 -78.75288 9255 ft 290 kts 11°
2026-04-30 06:50 36.02617 -78.74530 10431 ft 297 kts 10°
2026-04-30 06:50 36.04616 -78.73749 11357 ft 314 kts 11°
2026-04-30 06:50 36.06759 -78.72911 12293 ft 331 kts 11°
2026-04-30 06:51 36.08993 -78.72036 13218 ft 347 kts 11°
2026-04-30 06:51 36.11330 -78.71118 14202 ft 362 kts 12°
2026-04-30 06:51 36.13796 -78.70148 15116 ft 379 kts 12°
2026-04-30 06:51 36.16363 -78.69134 16008 ft 395 kts 12°
2026-04-30 06:52 36.19035 -78.68079 16878 ft 411 kts 12°
2026-04-30 06:52 36.21770 -78.66994 17806 ft 425 kts 12°
2026-04-30 06:52 36.24618 -78.65861 18971 ft 431 kts 11°
2026-04-30 06:52 36.27489 -78.64717 20251 ft 434 kts 11°
2026-04-30 06:53 36.30332 -78.63583 21378 ft 440 kts 11°
2026-04-30 06:53 36.33301 -78.62399 22303 ft 450 kts 11°
2026-04-30 06:53 36.36312 -78.61195 23232 ft 458 kts 11°
2026-04-30 06:53 36.39326 -78.59986 24219 ft 464 kts 11°
2026-04-30 06:54 36.42353 -78.58493 25192 ft 477 kts 18°
2026-04-30 06:54 36.45288 -78.56436 25850 ft 496 kts 24°
2026-04-30 06:54 36.48268 -78.54115 26578 ft 507 kts 24°
2026-04-30 06:54 36.51260 -78.51763 27454 ft 512 kts 24°
2026-04-30 06:55 36.54295 -78.49380 28251 ft 520 kts 23°
2026-04-30 06:55 36.57352 -78.46980 29039 ft 528 kts 22°
2026-04-30 06:55 36.60473 -78.44531 29903 ft 532 kts 22°
2026-04-30 06:55 36.63607 -78.42067 30924 ft 534 kts 21°
2026-04-30 06:56 36.66709 -78.39626 31973 ft 532 kts 21°
2026-04-30 06:56 36.69861 -78.37144 33051 ft 529 kts 20°
2026-04-30 06:56 36.72976 -78.34689 34146 ft 524 kts 21°
2026-04-30 06:56 36.76121 -78.32212 34981 ft 524 kts 21°
2026-04-30 06:57 36.79216 -78.29775 35735 ft 524 kts 20°
2026-04-30 06:57 36.82329 -78.27317 36738 ft 518 kts 20°
2026-04-30 06:57 36.85394 -78.24892 37720 ft 511 kts 20°
2026-04-30 06:57 36.88372 -78.22536 38578 ft 505 kts 19°
2026-04-30 06:58 36.91353 -78.20184 38885 ft 507 kts 19°
2026-04-30 06:58 36.97308 -78.15477 38859 ft 510 kts 19°
2026-04-30 06:59 37.03288 -78.10737 38847 ft 508 kts 20°
2026-04-30 06:59 37.09254 -78.05998 38826 ft 507 kts 20°
2026-04-30 07:00 37.15256 -78.01222 38866 ft 510 kts 20°
2026-04-30 07:00 37.20840 -77.96767 38849 ft 507 kts 20°
2026-04-30 07:01 37.26830 -77.91982 38882 ft 508 kts 19°
2026-04-30 07:01 37.32755 -77.87241 38834 ft 507 kts 20°
2026-04-30 07:02 37.38709 -77.82465 38913 ft 506 kts 20°
2026-04-30 07:02 37.41695 -77.80070 38762 ft 510 kts 20°
2026-04-30 07:02 37.44674 -77.77674 38898 ft 509 kts 20°
2026-04-30 07:03 37.50600 -77.72902 38905 ft 507 kts 20°
2026-04-30 07:03 37.56496 -77.68147 38841 ft 505 kts 21°
2026-04-30 07:04 37.62452 -77.63340 38868 ft 505 kts 21°
2026-04-30 07:04 37.68351 -77.58566 38810 ft 506 kts 21°
2026-04-30 07:05 37.77240 -77.51360 38840 ft 509 kts 21°
2026-04-30 07:05 37.83145 -77.46555 38883 ft 506 kts 21°
2026-04-30 07:06 37.89066 -77.41734 38851 ft 504 kts 21°
2026-04-30 07:06 37.94993 -77.36896 38849 ft 505 kts 21°
2026-04-30 07:07 38.00887 -77.32076 38828 ft 502 kts 22°
2026-04-30 07:07 38.06744 -77.27287 38820 ft 506 kts 23°
2026-04-30 07:08 38.12739 -77.22375 38823 ft 508 kts 22°
2026-04-30 07:08 38.18621 -77.17544 38815 ft 509 kts 22°
2026-04-30 07:09 38.24530 -77.12678 38813 ft 505 kts 23°
2026-04-30 07:09 38.30469 -77.07761 38796 ft 510 kts 26°
2026-04-30 07:10 38.36157 -77.02294 38817 ft 517 kts 28°
2026-04-30 07:10 38.41841 -76.96753 38808 ft 514 kts 28°
2026-04-30 07:11 38.47562 -76.91196 38851 ft 515 kts 27°
2026-04-30 07:11 38.53251 -76.85674 38794 ft 515 kts 28°
2026-04-30 07:12 38.58957 -76.80138 38847 ft 515 kts 28°
2026-04-30 07:12 38.64616 -76.74636 38871 ft 513 kts 27°
2026-04-30 07:13 38.70326 -76.69080 38843 ft 516 kts 28°
2026-04-30 07:13 38.75731 -76.63814 38862 ft 518 kts 28°
2026-04-30 07:14 38.81453 -76.58224 38861 ft 517 kts 28°
2026-04-30 07:14 38.87147 -76.52646 38740 ft 509 kts 28°
2026-04-30 07:15 38.89928 -76.49918 38043 ft 511 kts 28°
2026-04-30 07:15 38.92800 -76.47109 36843 ft 522 kts 28°
2026-04-30 07:15 38.95682 -76.44283 35863 ft 527 kts 28°
2026-04-30 07:15 38.98593 -76.41422 35153 ft 531 kts 29°
2026-04-30 07:16 39.01528 -76.38535 34282 ft 538 kts 29°
2026-04-30 07:16 39.04483 -76.35573 33206 ft 548 kts 32°
2026-04-30 07:16 39.07334 -76.32294 32080 ft 557 kts 36°
2026-04-30 07:16 39.10206 -76.28887 30988 ft 561 kts 36°
2026-04-30 07:17 39.13071 -76.25491 29943 ft 559 kts 37°
2026-04-30 07:17 39.15879 -76.22165 29367 ft 546 kts 37°
2026-04-30 07:17 39.21378 -76.15667 28095 ft 525 kts 37°
2026-04-30 07:18 39.24063 -76.12499 27375 ft 517 kts 37°
2026-04-30 07:18 39.26715 -76.09375 26727 ft 508 kts 37°
2026-04-30 07:18 39.29292 -76.06338 26242 ft 498 kts 37°
2026-04-30 07:18 39.31839 -76.03333 25848 ft 488 kts 37°
2026-04-30 07:19 39.34300 -76.00433 25445 ft 482 kts 37°
2026-04-30 07:19 39.36779 -75.97511 25065 ft 479 kts 38°
2026-04-30 07:19 39.39238 -75.94611 24645 ft 476 kts 38°
2026-04-30 07:19 39.41666 -75.91744 24224 ft 472 kts 38°
2026-04-30 07:20 39.44087 -75.88884 23820 ft 468 kts 38°
2026-04-30 07:20 39.46450 -75.86089 23436 ft 464 kts 38°
2026-04-30 07:20 39.48835 -75.83267 23034 ft 462 kts 38°
2026-04-30 07:20 39.51198 -75.80467 22650 ft 460 kts 38°
2026-04-30 07:21 39.53575 -75.77649 22227 ft 458 kts 39°
2026-04-30 07:21 39.55891 -75.74899 21819 ft 455 kts 38°
2026-04-30 07:21 39.58235 -75.72115 21456 ft 451 kts 39°
2026-04-30 07:21 39.60522 -75.69395 21088 ft 449 kts 39°
2026-04-30 07:22 39.65148 -75.63886 20312 ft 446 kts 39°
2026-04-30 07:22 39.67415 -75.61182 19933 ft 445 kts 39°
2026-04-30 07:22 39.69700 -75.58447 19497 ft 445 kts 39°
2026-04-30 07:23 39.71970 -75.55715 19018 ft 443 kts 39°
2026-04-30 07:23 39.74191 -75.53039 18544 ft 440 kts 39°
2026-04-30 07:23 39.76417 -75.50355 18085 ft 438 kts 39°
2026-04-30 07:23 39.78656 -75.47653 17616 ft 436 kts 40°
2026-04-30 07:24 39.80872 -75.44978 17167 ft 433 kts 40°
2026-04-30 07:24 39.83073 -75.42316 16699 ft 430 kts 40°
2026-04-30 07:24 39.85235 -75.39700 16252 ft 427 kts 39°
2026-04-30 07:24 39.87405 -75.37073 15795 ft 424 kts 40°
2026-04-30 07:25 39.89572 -75.34446 15331 ft 418 kts 41°
2026-04-30 07:25 39.91667 -75.31905 14887 ft 412 kts 40°
2026-04-30 07:25 39.93754 -75.29371 14451 ft 409 kts 40°
2026-04-30 07:25 39.95848 -75.26827 14031 ft 407 kts 41°
2026-04-30 07:26 39.97912 -75.24318 13599 ft 404 kts 41°
2026-04-30 07:26 39.99945 -75.21843 13228 ft 401 kts 41°
2026-04-30 07:26 40.01982 -75.19361 12861 ft 398 kts 41°
2026-04-30 07:26 40.04017 -75.16881 12503 ft 395 kts 41°
2026-04-30 07:27 40.06012 -75.14445 12180 ft 394 kts 41°
2026-04-30 07:27 40.07956 -75.12072 11703 ft 393 kts 41°
2026-04-30 07:27 40.09905 -75.09689 11347 ft 386 kts 41°
2026-04-30 07:27 40.11861 -75.07296 11079 ft 385 kts 41°
2026-04-30 07:28 40.13820 -75.04899 10815 ft 380 kts 41°
2026-04-30 07:28 40.15711 -75.02580 10492 ft 370 kts 42°
2026-04-30 07:28 40.17580 -75.00288 10165 ft 361 kts 42°
2026-04-30 07:28 40.19387 -74.98070 9853 ft 352 kts 41°
2026-04-30 07:29 40.21156 -74.95896 9486 ft 346 kts 41°
2026-04-30 07:29 40.22902 -74.93751 9133 ft 340 kts 41°
2026-04-30 07:29 40.24633 -74.91622 8788 ft 335 kts 41°
2026-04-30 07:29 40.26289 -74.89537 8466 ft 330 kts 45°
2026-04-30 07:30 40.29360 -74.85156 7869 ft 317 kts 46°
2026-04-30 07:30 40.30818 -74.83083 7789 ft 304 kts 45°
2026-04-30 07:30 40.32227 -74.81096 7725 ft 292 kts 45°
2026-04-30 07:31 40.33150 -74.79797 7673 ft 288 kts 45°
2026-04-30 07:31 40.34964 -74.77247 7556 ft 285 kts 45°
2026-04-30 07:31 40.36312 -74.75352 7465 ft 286 kts 45°
2026-04-30 07:31 40.37665 -74.73446 7370 ft 284 kts 45°
2026-04-30 07:32 40.39014 -74.71546 7255 ft 283 kts 45°
2026-04-30 07:32 40.40356 -74.69655 7150 ft 284 kts 45°
2026-04-30 07:32 40.41737 -74.67828 7057 ft 281 kts 34°
2026-04-30 07:32 40.43501 -74.66721 6963 ft 279 kts 13°
2026-04-30 07:33 40.45371 -74.66119 6886 ft 276 kts
2026-04-30 07:33 40.47262 -74.65612 6812 ft 274 kts
2026-04-30 07:33 40.49154 -74.65112 6728 ft 272 kts
2026-04-30 07:33 40.51010 -74.64619 6629 ft 271 kts
2026-04-30 07:34 40.52859 -74.64126 6531 ft 271 kts
2026-04-30 07:34 40.54694 -74.63634 6441 ft 269 kts
2026-04-30 07:34 40.56519 -74.63145 6364 ft 269 kts
2026-04-30 07:34 40.58373 -74.62648 6287 ft 270 kts
2026-04-30 07:35 40.60218 -74.62154 6195 ft 269 kts
2026-04-30 07:35 40.62043 -74.61665 6106 ft 269 kts
2026-04-30 07:35 40.63892 -74.61170 6009 ft 268 kts
2026-04-30 07:35 40.65717 -74.60680 5916 ft 268 kts
2026-04-30 07:36 40.67554 -74.60187 5834 ft 268 kts
2026-04-30 07:36 40.69385 -74.59695 5762 ft 269 kts
2026-04-30 07:36 40.71236 -74.59198 5672 ft 268 kts
2026-04-30 07:36 40.73065 -74.58706 5597 ft 269 kts
2026-04-30 07:37 40.74913 -74.58208 5488 ft 268 kts
2026-04-30 07:37 40.76756 -74.57713 5396 ft 269 kts
2026-04-30 07:37 40.78583 -74.57221 5307 ft 269 kts
2026-04-30 07:37 40.80442 -74.56720 5246 ft 269 kts
2026-04-30 07:38 40.82268 -74.56226 5181 ft 268 kts
2026-04-30 07:38 40.84081 -74.55689 5077 ft 268 kts 17°
2026-04-30 07:38 40.85649 -74.54380 4956 ft 269 kts 46°
2026-04-30 07:38 40.86573 -74.52258 4866 ft 271 kts 76°
2026-04-30 07:39 40.86645 -74.49831 4781 ft 268 kts 103°
2026-04-30 07:39 40.86082 -74.47485 4704 ft 267 kts 105°
2026-04-30 07:39 40.86065 -74.45043 4605 ft 267 kts 78°
2026-04-30 07:39 40.86630 -74.42701 4565 ft 267 kts 71°
2026-04-30 07:40 40.87275 -74.40390 4444 ft 268 kts 70°
2026-04-30 07:40 40.87917 -74.38071 4355 ft 268 kts 70°
2026-04-30 07:40 40.88549 -74.35754 4266 ft 267 kts 71°
2026-04-30 07:40 40.89175 -74.33444 4165 ft 266 kts 72°
2026-04-30 07:41 40.89803 -74.31125 4093 ft 266 kts 73°
2026-04-30 07:41 40.90421 -74.28836 4018 ft 265 kts 73°
2026-04-30 07:41 40.91025 -74.26600 3972 ft 254 kts 73°
2026-04-30 07:41 40.91611 -74.24432 3870 ft 246 kts 73°
2026-04-30 07:42 40.92180 -74.22322 3760 ft 238 kts 73°
2026-04-30 07:42 40.92724 -74.20299 3693 ft 233 kts 73°
2026-04-30 07:42 40.93218 -74.18250 3626 ft 230 kts 85°
2026-04-30 07:42 40.93142 -74.16185 3528 ft 227 kts 111°
2026-04-30 07:43 40.92386 -74.14362 3442 ft 220 kts 136°
2026-04-30 07:43 40.91228 -74.13184 3379 ft 205 kts 152°
2026-04-30 07:43 40.90025 -74.12263 3322 ft 192 kts 154°
2026-04-30 07:43 40.88878 -74.11443 3266 ft 181 kts 156°
2026-04-30 07:44 40.87760 -74.10666 3211 ft 177 kts 156°
2026-04-30 07:44 40.86684 -74.09919 3156 ft 176 kts 156°
2026-04-30 07:44 40.85595 -74.09163 3099 ft 176 kts 155°
2026-04-30 07:44 40.84499 -74.08430 3039 ft 174 kts 162°
2026-04-30 07:45 40.83308 -74.08158 2988 ft 173 kts 180°
2026-04-30 07:45 40.82162 -74.08564 2770 ft 175 kts 207°
2026-04-30 07:45 40.81103 -74.09355 2541 ft 174 kts 206°
2026-04-30 07:45 40.80030 -74.10038 2318 ft 161 kts 203°
2026-04-30 07:46 40.79061 -74.10638 2113 ft 150 kts 204°
2026-04-30 07:46 40.78154 -74.11213 1923 ft 135 kts 203°
2026-04-30 07:46 40.77327 -74.11736 1739 ft 127 kts 202°
2026-04-30 07:46 40.76546 -74.12229 1571 ft 124 kts 202°
2026-04-30 07:47 40.75768 -74.12724 1400 ft 124 kts 203°
2026-04-30 07:47 40.74989 -74.13219 1224 ft 124 kts 203°
2026-04-30 07:47 40.74209 -74.13714 1048 ft 125 kts 203°
2026-04-30 07:47 40.73419 -74.14217 866 ft 126 kts 204°
2026-04-30 07:48 40.72619 -74.14724 683 ft 127 kts 204°
2026-04-30 07:48 40.71814 -74.15233 488 ft 129 kts 205°
2026-04-30 07:48 40.70999 -74.15749 303 ft 129 kts 204°
2026-04-30 07:48 40.70179 -74.16271 113 ft 132 kts 204°
2026-04-30 07:49 40.69376 -74.16778 33 ft 116 kts 205°
2026-04-30 07:49 40.68809 -74.17136 32 ft 51 kts 206°
2026-04-30 07:49 40.68677 -74.17275 32 ft 15 kts 277°
2026-04-30 07:49 40.68711 -74.17387 32 ft 11 kts 294°
2026-04-30 07:50 40.68736 -74.17432 32 ft 5 kts 343°
2026-04-30 07:50 40.68799 -74.17421 32 ft 10 kts 22°
2026-04-30 07:50 40.68871 -74.17378 32 ft 12 kts 25°
2026-04-30 07:50 40.68948 -74.17329 32 ft 10 kts 25°
2026-04-30 07:51 40.69021 -74.17284 32 ft 11 kts 27°
2026-04-30 07:51 40.69065 -74.17257 32 ft 5 kts
2026-04-30 07:51 40.69096 -74.17276 32 ft 3 kts 295°
2026-04-30 07:51 40.69100 -74.17300 32 ft 0 kts 282°
2026-04-30 07:52 40.69104 -74.17314 32 ft 2 kts 295°
2026-04-30 07:52 40.69120 -74.17341 32 ft 0 kts 313°
2026-04-30 07:52 40.69129 -74.17351 32 ft 0 kts 319°
2026-04-30 07:52 40.69134 -74.17357 32 ft 1 kts 320°
2026-04-30 07:53 40.69135 -74.17358 32 ft 0 kts 320°